Location: Cahas Mountain Overlook
(37.0833°N, 80.1000°W)
Time: 08:19:15
(UTC-04:00)

Courier 1B Rocket - Pass Details

Date: 07 December 2023
Orbit: 920 x 1201 km, 28.2° (Epoch: 23 June)

Event Time Altitude Azimuth Distance (km) Brightness Sun altitude
Rises 14:24:13 0° 260° (W) 3,678 8.6 22.6°
Reaches altitude 10° 14:27:09 10° 252° (WSW) 2,691 8.3 22.3°
Maximum altitude 14:32:53 34° 189° (S) 1,481 7.4 21.7°
Drops below altitude 10° 14:38:25 10° 126° (SE) 2,602 7.3 21.0°
Sets 14:41:13 0° 117° (ESE) 3,541 7.8 20.7°
